Location: Kaseke
(18.0171°S, 31.0526°E)
Time: 12:35:01
(UTC+00:00)

Cosmos 2227 Rocket - Pass Details

Date: 14 July 2020
Orbit: 839 x 845 km, 71.0° (Epoch: 07 August)

Event Time Altitude Azimuth Distance (km) Brightness Sun altitude
Exits shadow 02:02:53 14° 152° (SSE) 2,218 4.5 -33.5°
Maximum altitude 02:06:06 21° 112° (ESE) 1,799 4.3 -32.8°
Drops below altitude 10° 02:10:18 10° 63° (ENE) 2,459 5.4 -31.8°
Sets 02:13:19 0° 48° (NE) 3,388 6.2 -31.1°
